Regional Weather Roundup
Issued by NWS

Home | Current Version | Previous Version | Text Only | Print | Product List | Glossary On
Versions: 1 2 3 4 5 6 7 8 9 10 11 12 13 14 15 16 17 18 19 20 21 22 23 24 25 26 27 28 29 30 31 32 33 34 35 36 37 38 39 40 41 42 43 44 45 46 47 48 49 50
000
ASUS43 KIND 230809
RWRIN

WEATHER ROUNDUP FOR INDIANA
NATIONAL WEATHER SERVICE INDIANAPOLIS IN
400 AM EDT TUE SEP 23 2014

NOTE: "FAIR" INDICATES FEW OR NO CLOUDS BELOW 12,000 FEET WITH NO
SIGNIFICANT WEATHER AND/OR OBSTRUCTIONS TO VISIBILITY.

* - STATION DOES NOT REPORT WEATHER SUCH AS PRECIPITATION OR FOG.

+ - STATION NOT QUALITY CONTROLLED BY THE NATIONAL WEATHER SERVICE.
    USE DATA WITH CAUTION...ESPECIALLY DEWPOINT AND RELATIVE
    HUMIDITY OBSERVATIONS.

INZ001>003-010>013-019-020-230900-
NORTHWEST INDIANA

CITY           SKY/WX    TMP DP  RH WIND       PRES   REMARKS
GARY /AIRPORT/ CLEAR     49  44  81 CALM      30.28F
KNOX *+        CLEAR     42  41  93 CALM      30.28F
LA PORTE +     CLEAR     42  42 100 CALM      30.30S
MICHIGAN CITY+ CLEAR     43  43 100 CALM      30.29S
MONTICELLO +   CLEAR     44  44  99 CALM      30.29S
RENSSELAER +   CLEAR     43  43 100 CALM      30.30S
VALPARAISO     CLEAR     45  43  93 CALM      30.29F FOG

$$

LMZ046-743>745-230900-
SOUTHERN LAKE MICHIGAN

STATION/POSITION TIME  TEMP WIND        PRES
                       AIR  DIR/SP/G
                 (UTC) (F)  (DEG/KT/KT) (MB)

$$

INZ004-005-014>016-021>024-230900-
NORTH CENTRAL INDIANA

CITY           SKY/WX    TMP DP  RH WIND       PRES   REMARKS
GOSHEN         CLEAR    N/A N/A N/A CALM      30.29S
LOGANSPORT +   CLEAR     43  41  93 CALM      30.31S
PERU/GRISSOM   CLEAR     45  45 100 CALM      30.29F
ROCHESTER +    CLEAR     45  45 100 CALM      30.30S
SOUTH BEND     CLEAR     46  42  86 CALM      30.30S
WARSAW +       CLEAR     43  43 100 CALM      30.29F

$$

INZ006>009-017-018-025>027-230900-
NORTHEAST INDIANA

CITY           SKY/WX    TMP DP  RH WIND       PRES   REMARKS
ANGOLA *+        N/A     43  41  93 CALM      30.29S
AUBURN +       CLEAR     43  41  93 CALM      30.30S
FORT WAYNE     CLEAR     43  41  93 CALM      30.30F
HUNTINGTON +   CLEAR     43  43  99 CALM      30.29F FOG

$$

INZ028-029-035-036-043>045-051>053-230900-
WEST CENTRAL INDIANA

CITY           SKY/WX    TMP DP  RH WIND       PRES   REMARKS
GREENCASTLE +  CLEAR     46  43  87 CALM      30.30S
LAFAYETTE      CLEAR     46  45  96 CALM      30.29F
TERRE HAUTE    CLEAR     43  42  97 CALM      30.29F

$$

INZ030>032-037>040-046>048-054>057-064-065-230900-
CENTRAL INDIANA

CITY           SKY/WX    TMP DP  RH WIND       PRES   REMARKS
CP ATTERBURY + CLEAR     41  41 100 CALM      30.30S
FRANKFORT +    CLEAR    N/A N/A N/A CALM      30.30F
INDIANAPOLIS   CLEAR     49  44  83 N3        30.29S
-EAGLE CREEK   CLEAR     50  44  80 CALM      30.29F
KOKOMO *+      CLEAR     43  39  87 CALM      30.30F
MARION +         N/A     41  41  98 CALM      30.31S
MT COMFORT *+  CLEAR     41  41 100 CALM      30.30S
SHELBYVILLE    CLEAR     44  41  89 CALM      30.29F
ZIONSVILLE +   CLEAR     43  40  89 CALM      30.31S

$$

INZ033-034-041-042-049-050-058-059-230900-
EAST CENTRAL INDIANA

CITY           SKY/WX    TMP DP  RH WIND       PRES   REMARKS
MUNCIE         CLEAR     43  41  93 CALM      30.30S

$$

INZ060-061-067>069-081>083-085>088-230900-
SOUTHWEST INDIANA

CITY           SKY/WX    TMP DP  RH WIND       PRES   REMARKS
EVANSVILLE     CLEAR     50  47  89 CALM      30.28S
WASHINGTON +   FOG       41  41 100 CALM      30.28S VSB 1/2

$$

INZ062-063-066-070>080-084-089>092-230900-
SOUTH CENTRAL AND SOUTHEAST INDIANA

CITY           SKY/WX    TMP DP  RH WIND       PRES   REMARKS
BLOOMINGTON    CLEAR     43  41  93 CALM      30.29S FOG

$$




USA.gov is the U.S. government's official web portal to all federal, state and local government web resources and services.